[[{"header":{"parameterUnit":"m.s-1","parameterCategory":1,"la1":30.2991,"la2":30.254,"lo1":-89.0895,"lo2":-89.0444,"dx":0.0017,"dy":0.0017,"nx":28,"ny":28,"refTime":"2023-01-22T03:00:00:Z","depth":0,"parameterNumber":2,"parameterNumberName":"U-component_of_WINDS"},"data":[0,0,0,0,0,0,0,0,0,0,0,0,0,0,0,0,0,0,0,0,0,0,0,0,0,0,0,0,0,0,0,0,0,0,0,0,0,0,0,0,0,0,0,0,0,0,0,0,0,0,0,0,0,0,0,0,0,0,3.9853,3.9853,0,3.9896,3.9896,3.9897,3.9846,3.9844,3.9842,3.9841,3.9885,3.9888,3.9891,0,0,0,0,0,0,0,0,0,0,0,0,0,3.9726,3.9729,3.9853,3.9853,3.9854,3.9896,3.9896,3.9897,3.9846,3.9844,3.9842,3.984,3.9884,3.9887,3.9891,0,0,0,0,0,0,0,0,0,0,0,0,0,3.9777,3.973,3.9852,3.9834,3.9832,3.9896,3.9896,3.9897,3.9847,3.9844,3.9841,3.9839,3.9883,3.9887,3.9891,3.9975,0,0,3.9905,3.9907,0,0,0,0,0,0,0,0,3.9774,3.9781,3.9836,3.9835,3.9834,3.9863,3.9868,3.9923,3.9848,3.9841,3.9841,3.9837,3.988,3.9884,3.9898,3.9977,3.9979,3.9905,3.9908,3.991,3.9911,0,0,0,0,0,0,0,3.977,3.9779,3.987,3.9837,3.9835,3.9823,3.9827,3.9878,3.9876,3.9842,3.9838,3.9844,3.9879,3.9894,3.9899,3.998,3.9905,3.9909,3.9912,3.9913,4.013,4.0133,0,0,0,0,0,0,3.9769,3.9777,3.9868,3.9871,3.9796,3.9827,3.9832,3.9856,3.9875,3.9875,3.9846,3.9841,3.9888,3.9894,3.9901,4.0001,3.991,3.9914,3.9916,4.0127,4.0131,4.0134,0,0,0,0,0,0,3.9767,3.9778,3.9866,3.9823,3.9833,3.9833,3.986,3.9859,3.9874,3.9879,3.9878,3.9863,3.9886,3.9894,3.9957,4.0001,3.9916,3.992,4.0123,4.0128,4.0133,4.0201,0,0,0,0,0,0,3.9763,3.9777,3.9809,3.9824,3.9836,3.9923,3.9863,3.9861,3.9882,3.9876,3.9894,3.9894,3.9885,3.9951,3.9962,4.0006,3.9923,4.0119,4.0126,4.0131,4.0195,4.0208,4.0219,0,0,0,0,0,3.9759,3.9827,3.9811,3.9822,3.9876,3.9925,3.9932,3.992,3.9886,3.9918,3.9921,3.9894,3.9995,3.9958,3.9969,4.0016,4.0117,4.0124,4.0131,4.019,4.0205,4.0218,0,0,0,0,0,0,3.9817,3.9828,3.9811,3.9886,3.9905,3.9917,3.9957,3.9936,3.9965,3.9959,3.9942,3.9946,4.0013,4.002,3.9979,4.0098,4.005,4.006,4.0091,4.0106,4.0117,4.0115,3.9927,0,0,0,0,0,3.9839,3.9878,3.9886,3.9951,3.9961,3.9958,3.9979,3.9967,3.9987,3.9995,4.0002,4.0022,4.0058,4.0082,4.0115,4.0196,4.0199,4.0233,4.0245,4.0255,4.0264,4.0307,4.0322,4.0157,4.0157,4.0157,0,0,3.9884,3.9895,3.9921,3.9963,3.9976,4.0018,3.9965,4.0011,4.0041,4.0002,4.0062,4.0068,4.0089,4.0161,4.0193,4.0169,4.031,4.0264,4.0271,4.0275,4.0316,4.0331,4.0345,4.0162,4.0161,4.016,0,0,3.9987,3.9999,4.0055,4.007,4.0091,4.0088,4.0101,4.0116,4.0119,4.0179,4.015,4.0186,4.0248,4.0265,4.0281,4.0391,4.0367,4.0402,4.0464,4.0506,4.0519,4.0531,4.057,4.0585,4.041,4.0411,4.0411,0,4.004,4.0102,4.0086,4.0135,4.0154,4.012,4.0176,4.0191,4.0223,4.0237,4.0209,4.0287,4.0299,4.0375,4.0402,4.0416,4.0431,4.04,4.0519,4.053,4.054,4.0578,4.0593,4.0415,4.0414,4.0414,4.0414,0,4.0167,4.021,4.0252,4.0283,4.0308,4.036,4.0352,4.0379,4.0365,4.0365,4.0427,4.0439,4.0475,4.0492,4.0479,4.0566,4.055,4.0521,4.0473,4.0561,4.0596,4.061,4.0421,4.0419,4.0418,4.0417,0,0,4.0309,4.0331,4.0347,4.0361,4.0381,4.0414,4.0465,4.05,4.0523,4.0545,4.0588,4.0641,4.0614,4.0633,4.0622,4.0659,4.0746,4.0625,4.0625,4.0648,4.0843,4.0865,4.0882,4.073,4.0732,4.0734,4.0841,0,4.0414,4.0502,4.0489,4.0574,4.0613,4.0581,4.0625,4.0643,4.0644,4.0677,4.0678,4.0717,4.0678,4.0689,4.0725,4.0728,4.0785,4.0719,4.0769,4.0771,4.0766,4.0901,4.0925,4.1025,4.0855,4.0857,4.0859,0,4.0548,4.0575,4.0664,4.0679,4.0695,4.0735,4.0766,4.0798,4.0817,4.0815,4.0837,4.0818,4.0869,4.0819,4.0888,4.0844,4.0864,4.0868,4.0872,4.0877,4.0821,4.091,4.1057,4.1072,4.088,4.0878,4.0877,0,4.0644,4.0703,4.0764,4.0777,4.0795,4.0824,4.0833,4.0849,4.0871,4.0898,4.0912,4.0944,4.0962,4.0988,4.0979,4.0943,4.1051,4.0999,4.1051,4.1051,4.1076,4.1075,4.1229,4.1087,4.1087,4.1086,4.1086,0,4.0763,4.0819,4.0808,4.0845,4.0907,4.0891,4.0953,4.0958,4.0972,4.101,4.0984,4.102,4.1005,4.104,4.1033,4.1093,4.1101,4.1101,4.1099,4.1104,4.1104,4.1117,4.111,4.109,4.109,4.1089,4.1088,0,4.0882,4.0877,4.0941,4.0953,4.0957,4.1002,4.1012,4.1047,4.1046,4.1094,4.1105,4.1103,4.1143,4.1136,4.118,4.1175,4.125,4.1238,4.1244,4.1241,4.1293,4.1289,4.1462,4.1484,4.1327,4.1329,4.133,0,4.0959,4.1001,4.1018,4.1041,4.1052,4.109,4.1112,4.1098,4.1122,4.1147,4.118,4.1217,4.1247,4.1312,4.1315,4.1348,4.1338,4.1396,4.1343,4.1347,4.134,4.1338,4.1342,4.1407,4.1409,4.1411,4.1412,0,4.1097,4.1092,4.1125,4.1157,4.1184,4.1208,4.123,4.1251,4.1238,4.1267,4.1307,4.133,4.1375,4.1413,4.1444,4.1453,4.1431,4.1428,4.1442,4.1449,4.145,4.1451,4.1273,4.1425,4.1423,4.1422,4.1422,4.1421,4.1198,4.1234,4.1251,4.1288,4.1303,4.1324,4.1358,4.136,4.1394,4.143,4.1419,4.1465,4.1483,4.1523,4.1535,4.1571,4.1549,4.1569,4.1574,4.158,4.1587,4.1444,4.1576,4.1576,4.1576,4.1575,4.1575,0,4.1335,4.1344,4.1379,4.141,4.1439,4.1415,4.1437,4.1464,4.1505,4.1523,4.1552,4.1599,4.1635,4.164,4.1675,4.1702,4.1693,4.1712,4.171,4.1713,4.1603,4.1588,4.1719,4.1719,4.1719,4.1719,4.1719,4.1719,4.141,4.147,4.1467,4.1534,4.1542,4.1587,4.1602,4.1622,4.1636,4.1689,4.1719,4.1722,4.1735,4.177,4.1802,4.1802,4.1817,4.184,4.1837,4.1735,4.1721,4.1707,4.1693,4.1843,4.1843,4.1943,4.1944,4.1945]},{"header":{"parameterUnit":"m.s-1","parameterCategory":1,"la1":30.2991,"la2":30.254,"lo1":-89.0895,"lo2":-89.0444,"dx":0.0017,"dy":0.0017,"nx":28,"ny":28,"refTime":"2023-01-22T03:00:00:Z","depth":0,"parameterNumber":3,"parameterNumberName":"V-component_of_WINDS"},"data":[0,0,0,0,0,0,0,0,0,0,0,0,0,0,0,0,0,0,0,0,0,0,0,0,0,0,0,0,0,0,0,0,0,0,0,0,0,0,0,0,0,0,0,0,0,0,0,0,0,0,0,0,0,0,0,0,0,0,-1.132,-1.1319,0,-1.1236,-1.1235,-1.1234,-1.1177,-1.1176,-1.1176,-1.1175,-1.1087,-1.1085,-1.1083,0,0,0,0,0,0,0,0,0,0,0,0,0,-1.143,-1.1428,-1.132,-1.1319,-1.1318,-1.1236,-1.1235,-1.1234,-1.1177,-1.1176,-1.1176,-1.1175,-1.1088,-1.1085,-1.1083,0,0,0,0,0,0,0,0,0,0,0,0,0,-1.1368,-1.1428,-1.132,-1.128,-1.1275,-1.1236,-1.1235,-1.1233,-1.1177,-1.1176,-1.1175,-1.1175,-1.1088,-1.1085,-1.1082,-1.1077,0,0,-1.1073,-1.1072,0,0,0,0,0,0,0,0,-1.1371,-1.1364,-1.1287,-1.1282,-1.1277,-1.1216,-1.1241,-1.1181,-1.1177,-1.1214,-1.1175,-1.1175,-1.113,-1.1124,-1.1109,-1.1072,-1.1069,-1.1073,-1.1071,-1.107,-1.1069,0,0,0,0,0,0,0,-1.1376,-1.1367,-1.1287,-1.1286,-1.128,-1.1265,-1.1256,-1.1229,-1.1176,-1.1211,-1.1206,-1.1197,-1.1128,-1.1112,-1.1107,-1.1067,-1.1073,-1.1071,-1.1069,-1.1068,-1.1023,-1.1023,0,0,0,0,0,0,-1.1387,-1.1371,-1.1289,-1.1284,-1.1324,-1.1264,-1.1253,-1.1236,-1.1177,-1.1167,-1.1198,-1.1195,-1.1118,-1.111,-1.1103,-1.1093,-1.107,-1.1067,-1.1066,-1.1022,-1.1023,-1.1023,0,0,0,0,0,0,-1.1389,-1.138,-1.1293,-1.1326,-1.1314,-1.1263,-1.1244,-1.1235,-1.122,-1.1167,-1.1157,-1.1192,-1.1117,-1.1108,-1.1084,-1.1089,-1.1066,-1.1063,-1.1021,-1.1022,-1.1023,-1.1072,0,0,0,0,0,0,-1.1392,-1.1381,-1.1378,-1.1327,-1.1313,-1.1275,-1.1244,-1.1234,-1.1215,-1.121,-1.1159,-1.115,-1.1116,-1.1089,-1.1081,-1.1084,-1.1061,-1.1021,-1.1022,-1.1023,-1.1069,-1.1074,-1.1078,0,0,0,0,0,-1.1397,-1.1395,-1.1378,-1.1369,-1.1308,-1.1275,-1.1267,-1.1229,-1.1216,-1.1212,-1.1179,-1.1151,-1.109,-1.1087,-1.1078,-1.108,-1.102,-1.1021,-1.1023,-1.1067,-1.1073,-1.1078,0,0,0,0,0,0,-1.1447,-1.1387,-1.1368,-1.135,-1.1318,-1.1266,-1.126,-1.1236,-1.1207,-1.1203,-1.1156,-1.1145,-1.1126,-1.1101,-1.1099,-1.1072,-1.1052,-1.1051,-1.1089,-1.1094,-1.1098,-1.1104,-1.1059,0,0,0,0,0,-1.1456,-1.1435,-1.1384,-1.1372,-1.1357,-1.1312,-1.1296,-1.127,-1.1235,-1.1221,-1.1185,-1.1152,-1.1125,-1.1108,-1.1081,-1.1066,-1.1054,-1.1063,-1.1068,-1.1072,-1.1071,-1.1062,-1.1066,-1.1028,-1.1028,-1.1028,0,0,-1.1474,-1.1439,-1.1428,-1.1381,-1.1354,-1.1333,-1.1301,-1.128,-1.1263,-1.1217,-1.1193,-1.1166,-1.1126,-1.1107,-1.1097,-1.1085,-1.108,-1.1073,-1.1077,-1.1074,-1.1064,-1.1068,-1.1071,-1.1028,-1.1028,-1.1028,0,0,-1.1495,-1.1467,-1.1455,-1.1428,-1.1388,-1.1358,-1.1355,-1.1307,-1.1288,-1.1263,-1.1228,-1.1209,-1.1163,-1.1136,-1.1117,-1.1132,-1.1105,-1.1124,-1.1146,-1.1138,-1.1141,-1.1143,-1.1148,-1.1151,-1.1124,-1.1124,-1.1124,0,-1.1522,-1.149,-1.1451,-1.1432,-1.1413,-1.1372,-1.1359,-1.1335,-1.1287,-1.1275,-1.1263,-1.1207,-1.1177,-1.1151,-1.1155,-1.1141,-1.1136,-1.1128,-1.1144,-1.1146,-1.1147,-1.1152,-1.1154,-1.1127,-1.1126,-1.1126,-1.1126,0,-1.1525,-1.1503,-1.1498,-1.1455,-1.1435,-1.1419,-1.1378,-1.1362,-1.1338,-1.131,-1.1286,-1.1249,-1.1214,-1.1206,-1.1182,-1.1178,-1.1172,-1.1153,-1.1131,-1.1154,-1.1157,-1.1159,-1.113,-1.1129,-1.1129,-1.1128,0,0,-1.1573,-1.1511,-1.1509,-1.1489,-1.1443,-1.1425,-1.1408,-1.1375,-1.1362,-1.1332,-1.1316,-1.128,-1.1263,-1.1241,-1.1213,-1.1206,-1.122,-1.1188,-1.1186,-1.1195,-1.1214,-1.1228,-1.123,-1.1204,-1.1204,-1.1204,-1.1217,0,-1.1587,-1.1555,-1.1521,-1.15,-1.148,-1.1442,-1.1427,-1.1397,-1.1371,-1.1349,-1.132,-1.1295,-1.1274,-1.1261,-1.1252,-1.122,-1.1223,-1.1219,-1.1188,-1.1187,-1.1198,-1.1232,-1.1246,-1.126,-1.1218,-1.1218,-1.1218,0,-1.1599,-1.1571,-1.1549,-1.1506,-1.1496,-1.1483,-1.1451,-1.1431,-1.1397,-1.1378,-1.1355,-1.1327,-1.1307,-1.129,-1.1262,-1.126,-1.1245,-1.1228,-1.1228,-1.1222,-1.1203,-1.1226,-1.1263,-1.1265,-1.122,-1.122,-1.122,0,-1.1636,-1.1593,-1.1575,-1.1559,-1.1508,-1.15,-1.1479,-1.1444,-1.1426,-1.1398,-1.1386,-1.1356,-1.1339,-1.1317,-1.1281,-1.1271,-1.1257,-1.1236,-1.124,-1.1241,-1.1237,-1.1238,-1.1272,-1.123,-1.123,-1.123,-1.123,0,-1.1654,-1.1642,-1.1591,-1.1579,-1.1565,-1.1526,-1.1513,-1.1488,-1.1457,-1.144,-1.1406,-1.1391,-1.1345,-1.1324,-1.1296,-1.1278,-1.127,-1.1255,-1.1247,-1.1257,-1.1259,-1.1245,-1.1243,-1.1231,-1.1231,-1.1231,-1.1231,0,-1.1692,-1.1657,-1.1634,-1.1589,-1.1578,-1.1569,-1.153,-1.1517,-1.1491,-1.1469,-1.1462,-1.1419,-1.1393,-1.1356,-1.1319,-1.13,-1.1285,-1.1274,-1.1297,-1.1292,-1.1298,-1.1298,-1.1324,-1.1325,-1.1284,-1.1285,-1.1285,0,-1.1705,-1.1695,-1.1649,-1.1636,-1.1616,-1.1595,-1.1578,-1.154,-1.1523,-1.1485,-1.1477,-1.1449,-1.1424,-1.1385,-1.135,-1.1321,-1.1308,-1.1319,-1.1303,-1.1314,-1.1307,-1.1308,-1.1307,-1.1322,-1.1323,-1.1324,-1.1324,0,-1.1732,-1.1716,-1.1693,-1.1664,-1.1645,-1.1621,-1.1594,-1.1585,-1.1542,-1.1525,-1.1499,-1.148,-1.1443,-1.1415,-1.1383,-1.136,-1.1335,-1.133,-1.1329,-1.1338,-1.1352,-1.1344,-1.1306,-1.1329,-1.1328,-1.1328,-1.1328,-1.1328,-1.1757,-1.1747,-1.1714,-1.169,-1.1666,-1.1643,-1.163,-1.1602,-1.158,-1.1547,-1.1526,-1.1501,-1.1469,-1.1422,-1.1401,-1.1381,-1.137,-1.137,-1.1369,-1.1369,-1.1373,-1.1357,-1.1375,-1.1375,-1.1375,-1.1375,-1.1374,0,-1.1782,-1.1759,-1.1738,-1.1703,-1.1684,-1.1664,-1.1635,-1.162,-1.1599,-1.1571,-1.1548,-1.1519,-1.1493,-1.1457,-1.1428,-1.1419,-1.1407,-1.1413,-1.1412,-1.1408,-1.1384,-1.1387,-1.1423,-1.1423,-1.1423,-1.1423,-1.1423,-1.1423,-1.1792,-1.1774,-1.1755,-1.1725,-1.1703,-1.1679,-1.1664,-1.1642,-1.162,-1.1589,-1.1568,-1.1545,-1.1514,-1.1483,-1.1459,-1.1449,-1.1439,-1.1449,-1.1435,-1.1414,-1.1409,-1.1405,-1.1408,-1.1447,-1.1447,-1.1461,-1.1461,-1.1461]}]]